Flag for China Weather past 2 weeks in Foochow, Fujian, China

Now
84 °F

Clear.


Feels Like: 92 °F
Forecast: 73 / 98 °F
Wind: 3 mph from West

Location: Fuzhou Airport

Current Time: Jul 31, 2014 at 7:38:30 AM

Latest Report: Jul 31, 2014 at 7:00 AM


Visibility: 6 mi

Pressure: 29.59 "Hg

Humidity: 74%

Dew point: 75 °F

Location of FoochowLocation

Historic Weather in Foochow — Graph

°F

Foochow temperature yesterday

Maximum temperature yesterday: 91 °F (at 1:00 PM)
Minimum temperature yesterday: 81 °F (at 3:00 AM)
Average temperature yesterday: 85 °F

Past Weeks' High & Low Weather Summary

 TemperatureHumidityPressure
High91 °F (Jul 16, 12:00 PM)100% (Jul 24, 1:00 AM)29.86 "Hg (Jul 24, 1:00 AM)
Low77 °F (Jul 24, 1:00 AM)56% (Jul 21, 1:00 PM)29.18 "Hg (Jul 23, 4:00 PM)
Average84 °F79%29.71 "Hg
* Reported Jul 16 6:00 AM — Jul 31 6:00 AM, Foochow, Weather by CustomWeather, © 2014

Note: Actual official high and low records may vary slightly from our data, if they occured in-between our weather recording intervals... More about our weather records

Advertising

Foochow weather history for previous 24 hours

 ConditionsComfort  
Time TempWeatherWind HumidityBarometerVisibility
6:00 AM
Jul 31
81 °FSunny.1 mph84%29.59 "Hg10 mi
5:00 AM81 °FClear.3 mph79%29.59 "Hg10 mi
4:00 AM81 °FClear.1 mph79%29.59 "Hg10 mi
3:00 AM81 °FClear.1 mph79%29.59 "Hg10 mi
2:00 AM82 °FClear.6 mph74%29.59 "Hg10 mi
1:00 AM82 °FPassing clouds.3 mph74%29.62 "HgN/A
12:00 AM82 °FPassing clouds.3 mph74%29.62 "HgN/A
11:00 PM
Jul 30
82 °FClear.3 mph79%29.65 "Hg10 mi
10:00 PM82 °FPassing clouds.3 mph79%29.65 "HgN/A
9:00 PM82 °FClear.3 mph84%29.65 "Hg10 mi
8:00 PM82 °FPassing clouds.3 mph84%29.65 "HgN/A
7:00 PM84 °FPassing clouds.3 mph79%29.65 "HgN/A
6:00 PM86 °FSunny.8 mph75%29.65 "Hg10 mi
5:00 PM88 °FSunny.10 mph70%29.65 "Hg10 mi
4:00 PM88 °FPassing clouds.13 mph70%29.65 "HgN/A
3:00 PM90 °FPassing clouds.13 mph63%29.65 "HgN/A
2:00 PM91 °FPassing clouds.13 mph59%29.65 "HgN/A
1:00 PM91 °FPassing clouds.15 mph59%29.68 "HgN/A
12:00 PM90 °FScattered clouds.15 mph63%29.71 "HgN/A
11:00 AM90 °FScattered clouds.13 mph63%29.71 "HgN/A
10:00 AM88 °FScattered clouds.13 mph66%29.71 "HgN/A
9:00 AM88 °FScattered clouds.10 mph66%29.71 "HgN/A
8:00 AM86 °FPassing clouds.6 mph66%29.71 "HgN/A
7:00 AM84 °FPassing clouds.3 mph74%29.71 "HgN/A
Weather by CustomWeather, © 2014

See weather overviewHow to use our weather pages